Date String (YYYY-MM-DD hh:mm:ss) UTC,Instrument flags,Ambient pressure (hPa),Sample flow (lpm),Bypass flow (lpm),Sample temperature (°C),Ambient temperature (°C),ASC tube jacket temperature (°C),LED temperature (°C),Box temperature (°C),Sample RH (%),Span deviation,Mass concentration (μg/m³),Mass concentration (μg/m³),Mass concentration (μg/m³)
DateTimeUTC,F1_M11,P_M11,Q1_M11,Q2_M11,T1_M11,T2_M11,T3_M11,T4_M11,T5_M11,U1_M11,ZSPAN_M11,X0_M11,X2_M11,X1_M11
2023-05-15 18:00:00,,0842.4,5.00,0.00,28.4,26.8,00.0,36.8,30.0,25.9,0000.0,0005.83,0003.77,0003.61
2023-05-15 18:01:00,,0842.4,5.00,0.00,28.4,26.8,00.0,36.8,30.0,26.6,0000.0,0007.49,0003.79,0003.64
2023-05-15 18:02:00,,0842.4,5.00,0.00,28.4,26.8,00.0,36.8,29.9,26.0,0000.0,0007.57,0003.88,0003.72
2023-05-15 18:03:00,,0842.4,5.00,0.00,28.4,26.8,00.0,36.8,29.9,26.2,0000.0,0007.61,0003.95,0003.81
2023-05-15 18:04:00,,0842.4,5.00,0.00,28.4,26.8,00.0,36.8,29.9,26.2,0000.0,0007.70,0004.00,0003.86
2023-05-15 18:05:00,,0842.3,5.00,0.00,28.4,26.8,00.0,36.8,29.9,26.0,0000.0,0008.07,0004.02,0003.88
2023-05-15 18:06:00,,0842.3,5.01,0.00,28.4,26.8,00.0,36.8,29.9,26.5,0000.0,0008.01,0004.01,0003.89
2023-05-15 18:07:00,,0842.3,5.00,0.00,28.4,26.8,00.0,36.8,30.0,26.8,0000.0,0008.08,0004.04,0003.91
2023-05-15 18:08:00,,0842.3,5.00,0.00,28.4,26.7,00.0,36.8,29.9,26.3,0000.0,0008.19,0004.10,0003.94
2023-05-15 18:09:00,,0842.3,4.99,0.00,28.4,26.7,00.0,36.8,29.9,26.5,0000.0,0008.24,0004.16,0004.00
2023-05-15 18:10:00,,0842.3,5.00,0.00,28.3,26.7,00.0,36.8,29.9,26.9,0000.0,0008.27,0004.20,0004.05
2023-05-15 18:11:00,,0842.3,5.01,0.00,28.3,26.7,00.0,36.8,29.9,27.0,0000.0,0008.13,0004.27,0004.11
2023-05-15 18:12:00,,0842.3,5.00,0.00,28.3,26.6,00.0,36.8,29.8,26.6,0000.0,0006.71,0004.34,0004.18
2023-05-15 18:13:00,,0842.3,5.01,0.00,28.3,26.6,00.0,36.8,29.8,27.1,0000.0,0006.97,0004.38,0004.23
2023-05-15 18:14:00,,0842.3,5.00,0.00,28.3,26.6,00.0,36.8,29.9,27.9,0000.0,0007.85,0004.45,0004.28
2023-05-15 18:15:00,,0842.3,4.98,0.00,28.3,26.6,00.0,36.7,29.8,28.0,0000.0,0007.86,0004.53,0004.37
2023-05-15 18:16:00,,0842.3,5.00,0.00,28.3,26.6,00.0,36.7,29.8,28.2,0000.0,0007.53,0004.62,0004.45
2023-05-15 18:17:00,,0842.3,5.01,0.00,28.2,26.6,00.0,36.7,29.8,28.2,0000.0,0007.60,0004.69,0004.53
2023-05-15 18:18:00,,0842.3,5.00,0.00,28.2,26.5,00.0,36.7,29.8,27.7,0000.0,0007.75,0004.76,0004.62
2023-05-15 18:19:00,,0842.3,5.01,0.00,28.2,26.5,00.0,36.7,29.8,27.7,0000.0,0007.87,0004.79,0004.67
2023-05-15 18:20:00,,0842.3,4.98,0.00,28.2,26.5,00.0,36.7,29.8,27.8,0000.0,0007.91,0004.82,0004.70
2023-05-15 18:21:00,,0842.3,5.00,0.00,28.2,26.5,00.0,36.7,29.8,27.3,0000.0,0007.97,0004.83,0004.71
2023-05-15 18:22:00,,0842.3,5.01,0.00,28.2,26.5,00.0,36.7,29.8,27.4,0000.0,0008.13,0004.83,0004.71
2023-05-15 18:23:00,,0842.3,5.00,0.00,28.2,26.6,00.0,36.7,29.8,27.2,0000.0,0008.39,0004.86,0004.73
2023-05-15 18:24:00,,0842.3,5.00,0.00,28.2,26.6,00.0,36.7,29.8,27.0,0000.0,0008.42,0004.88,0004.75
2023-05-15 18:25:00,,0842.3,5.00,0.00,28.2,26.6,00.0,36.7,29.8,27.4,0000.0,0007.62,0004.89,0004.77
2023-05-15 18:26:00,,0842.3,5.00,0.00,28.2,26.6,00.0,36.7,29.8,27.6,0000.0,0007.59,0004.91,0004.78
2023-05-15 18:27:00,,0842.3,4.99,0.00,28.2,26.6,00.0,36.7,29.8,27.5,0000.0,0007.69,0004.94,0004.80
2023-05-15 18:28:00,,0842.3,5.00,0.00,28.2,26.6,00.0,36.7,29.8,27.1,0000.0,0007.77,0004.96,0004.79
2023-05-15 18:29:00,,0842.3,4.99,0.00,28.3,26.7,00.0,36.7,29.9,27.4,0000.0,0007.82,0005.00,0004.80
2023-05-15 18:30:00,,0842.2,4.99,0.00,28.3,26.7,00.0,36.7,29.9,27.5,0000.0,0007.68,0005.03,0004.81
2023-05-15 18:31:00,,0842.2,5.00,0.00,28.3,26.7,00.0,36.7,29.8,27.7,0000.0,0007.66,0005.05,0004.84
2023-05-15 18:32:00,,0842.2,5.01,0.00,28.3,26.7,00.0,36.7,29.8,27.5,0000.0,0007.67,0005.11,0004.89
2023-05-15 18:33:00,,0842.2,5.01,0.00,28.3,26.7,00.0,36.7,29.9,27.6,0000.0,0007.59,0005.17,0004.95
2023-05-15 18:34:00,,0842.2,5.00,0.00,28.3,26.6,00.0,36.7,29.8,27.4,0000.0,0007.42,0005.21,0004.99
2023-05-15 18:35:00,,0842.1,5.00,0.00,28.3,26.6,00.0,36.7,29.8,27.1,0000.0,0007.41,0005.22,0005.01
2023-05-15 18:36:00,,0842.1,5.00,0.00,28.2,26.6,00.0,36.7,29.8,27.0,0000.0,0007.37,0005.22,0005.02
2023-05-15 18:37:00,,0842.1,4.99,0.00,28.2,26.6,00.0,36.7,29.8,27.1,0000.0,0007.37,0005.21,0005.00
2023-05-15 18:38:00,,0842.1,5.00,0.00,28.2,26.6,00.0,36.7,29.8,27.3,0000.0,0007.27,0005.19,0004.98
2023-05-15 18:39:00,,0842.1,5.00,0.00,28.3,26.6,00.0,36.7,29.9,27.6,0000.0,0007.25,0005.19,0005.00
2023-05-15 18:40:00,,0842.0,4.99,0.00,28.3,26.7,00.0,36.7,29.9,27.4,0000.0,0007.07,0005.16,0004.99
2023-05-15 18:41:00,,0842.0,5.00,0.00,28.3,26.7,00.0,36.7,29.9,27.7,0000.0,0006.97,0005.14,0004.98
2023-05-15 18:42:00,,0842.0,5.00,0.00,28.3,26.7,00.0,36.7,29.9,27.9,0000.0,0007.08,0005.15,0004.97
2023-05-15 18:43:00,,0842.1,5.01,0.00,28.3,26.7,00.0,36.7,29.9,27.6,0000.0,0007.53,0005.15,0004.98
2023-05-15 18:44:00,,0842.0,5.01,0.00,28.3,26.8,00.0,36.7,29.9,27.5,0000.0,0007.57,0005.18,0004.99
2023-05-15 18:45:00,,0842.1,5.00,0.00,28.3,26.8,00.0,36.7,29.9,27.4,0000.0,0007.55,0005.18,0005.00
2023-05-15 18:46:00,,0842.0,5.00,0.00,28.3,26.8,00.0,36.7,29.9,27.7,0000.0,0007.57,0005.18,0005.00
2023-05-15 18:47:00,,0842.0,4.98,0.00,28.3,26.8,00.0,36.7,30.0,27.1,0000.0,0007.67,0005.22,0005.01
2023-05-15 18:48:00,,0842.0,5.00,0.00,28.4,26.8,00.0,36.7,30.0,26.8,0000.0,0007.65,0005.22,0005.02
2023-05-15 18:49:00,,0841.9,5.01,0.00,28.4,26.9,00.0,36.7,30.0,27.0,0000.0,0007.70,0005.22,0005.02
2023-05-15 18:50:00,,0841.9,5.00,0.00,28.4,26.9,00.0,36.7,30.0,27.1,0000.0,0007.63,0005.18,0004.98
2023-05-15 18:51:00,,0842.0,5.00,0.00,28.4,26.9,00.0,36.7,30.0,26.9,0000.0,0007.67,0005.18,0004.97
2023-05-15 18:52:00,,0842.0,5.00,0.00,28.4,26.9,00.0,36.7,30.0,26.6,0000.0,0007.64,0005.15,0004.95
2023-05-15 18:53:00,,0841.9,5.00,0.00,28.4,26.8,00.0,36.7,30.0,26.9,0000.0,0007.62,0005.14,0004.94
2023-05-15 18:54:00,,0842.0,5.00,0.00,28.4,26.8,00.0,36.7,30.0,27.4,0000.0,0007.26,0005.10,0004.92
2023-05-15 18:55:00,,0842.0,4.99,0.00,28.4,26.8,00.0,36.7,30.0,26.8,0000.0,0006.97,0005.05,0004.88
2023-05-15 18:56:00,,0841.9,5.01,0.00,28.4,26.8,00.0,36.7,30.0,26.3,0000.0,0006.82,0005.00,0004.84
2023-05-15 18:57:00,,0841.8,5.00,0.00,28.4,26.8,00.0,36.7,30.0,26.0,0000.0,0006.74,0004.96,0004.80
2023-05-15 18:58:00,,0841.8,5.00,0.00,28.4,26.8,00.0,36.7,30.0,26.2,0000.0,0006.60,0004.90,0004.77
2023-05-15 18:59:00,,0841.8,5.00,0.00,28.4,26.8,00.0,36.7,30.0,26.9,0000.0,0007.39,0004.89,0004.74
